sat.trackr.live / text

‹ back to catalog

STARLINK-4346

NORAD 53073 · 2022-077AG

PAYLOAD ACTIVE UNKNOWN

§ Identity

Operator
Country
US
Launch date
2022-07-11
Launch site
AFWTR
Launch vehicle
Mass (kg)
RCS (m²)

Purposes: comms

External: N2YO · Heavens-Above · Gunter

§ Orbital elements

Epoch: 2026-09-19T18:36:02.893536Z

Period
94.43 min
Inclination
97.6336°
Eccentricity
0.0005161
Mean motion
15.24896510 rev/d
Perigee alt
487.6 km
Apogee alt
494.6 km
Semi-major
6,869.2 km
B*
3.7585e-4
RAAN
94.0014°
Arg perigee
267.6198°
Mean anomaly
92.4448°
Rev number
23,083

§ Raw data

STARLINK-43461 53073U 22077AG  26262.77503349  .00009281  00000+0  37585-3 0  99922 53073  97.6336  94.0014 0005161 267.6198  92.4448 15.24896510230832

JSON: /api/v1/satellites/53073 · /tle

For live sub-satellite position, see the globe view (requires WebGL).

§ Visibility from observer

Set your observer location to see the next 7 days of passes ≥ 10°. The values pass through the URL so the page stays shareable.

No JS? Fill the form by hand. The geolocation button needs JavaScript.